Hourly Data Report for July 12, 2021

DRYDEN REGIONAL
ONTARIO
Current Station Operator: NAVCAN

49°49'39.000" N
92°44'39.000" W
412.70 m
6032125
71527
YHD

Download Data

Hourly Data (July 2021)
Hourly Data Report for July 12, 2021
TIME
LST
Temp Definition
°C
Dew Point Definition
°C
Rel Hum Definition
%
Precip. Amount Definition
mm

Wind Dir Definition
10's deg

Wind Spd Definition
km/h
Visibility Definition
km
Stn Press Definition
kPa
Hmdx Definition


Wind Chill Definition


Weather Definition


00:00 21.7 14.5 63 0.0 20 11 16.1 96.70 25   LegendNANA
01:00 21.0 14.7 67 0.0 22 11 16.1 96.74 25   LegendNANA
02:00 20.8 14.5 67 0.0 21 9 16.1 96.76     LegendNANA
03:00 19.7 15.0 74 0.0 20 11 16.1 96.76     LegendNANA
04:00 19.2 14.7 75 0.0 20 13 16.1 96.75     LegendNANA
05:00 19.2 14.9 76 0.0 20 13 16.1 96.78     LegendNANA
06:00 19.5 14.8 74 0.0 19 15 16.1 96.82     LegendNANA
07:00 20.1 15.0 72 0.0 20 18 16.1 96.83     LegendNANA
08:00 22.0 14.6 63 0.0 22 13 16.1 96.82 26   LegendNANA
09:00 24.1 14.5 54 0.0 25 18 16.1 96.80 28   LegendNANA
10:00 25.8 14.1 48 0.0 21 24 16.1 96.75 29   LegendNANA
11:00 27.5 14.9 45 0.0 21 21 16.1 96.74 31   LegendNANA
12:00 28.2 14.2 42 0.0 22 28 16.1 96.66 32   LegendNANA
13:00 29.4 13.3 37 0.0 18 28 14.5 96.60 32   LegendNANA
14:00 29.3 12.4 35 0.0 20 28 12.9 96.58 32   LegendNANA
15:00 29.6 12.3 34 0.0 20 24 12.9 96.52 32   LegendNANA
16:00 28.9 11.3 33 0.0 21 21 11.3 96.51 31   LegendNANA
17:00 28.7 11.8 35 0.0 19 17 11.3 96.47 31   LegendNANA
18:00 27.9 10.9 34 0.0 19 24 16.1 96.44 30   LegendNANA
19:00 26.8 11.0 37 0.0 19 21 16.1 96.44 29   LegendNANA
20:00 25.2 11.2 41 0.0 19 17 16.1 96.41 27   LegendNANA
21:00 24.3 12.1 46 0.0 20 17 16.1 96.41 27   LegendNANA
22:00 23.9 13.0 50 0.0 20 21 16.1 96.36 27   LegendNANA
23:00 22.9 13.2 54 0.0 20 18 16.1 96.36 26   LegendNANA

Notes on Data Quality.

Legend

  • E = Estimated
  • M = Missing
  • NA = Not Available*
  • [empty] = Indicates an unobserved value
Date modified: